STARLINK-34011, 63845

Orbit data source: Space-Track

STARLINK-34011, 63845 is a payload satellite owned by SpaceX/Seattle (US) in LEO that was launched on Wed, 07 May 2025 UTC via an FALCON 9 launch vehicle from the Air Force Eastern Test Range (AFETR). Payload-class satellites include a variety of spacecraft equipped with specific instruments for various scientific and technological missions. These include communications satellites like Starlink; space stations such as the ISS; scientific satellites like the Hubble; Earth observation satellites from companies like Planet Labs, Umbra, and HawkEye 360; GPS; miniature CubeSats for education and research; and military/defense satellites.

Loading next visibility...
Identifier
63845, 2025-093K
Orbit
LEO
Last TLE update
16 hours ago
Origin
Manufacturer
SpaceX/Seattle
Mission
Operational spacecraft
Bus & Motor
STARLINK V2MO, Unknown motor
Mass
575 kg wet, ~530 kg dry
Launch date (UTC)
2025-05-07 (1 month ago)
Launch vehicle
FALCON 9
Launch site
Air Force Eastern Test Range (AFETR)
Object type
Payload
Rocket body
Debris
Shape & HBR
Unknown
Radar Cross Section
Large (>1 m²)

Expand to show TLE details & history

TLE from 16 hours ago
0 STARLINK-34011
1 63845U 25093K   25169.60455487  .00026684  00000-0  64361-3 0  9996
2 63845  42.9961 130.1938 0000517 306.1368  53.9440 15.40709764  7346
Epoch: 2025-06-18T14:30Z
TLE epoch observation values (Epoch: 2025-06-18T14:30:33.54Z)
Latitude
-0.00007°
Longitude
5.46977°
Altitude
443.579 km
Speed
7.648 km/s
True Right ascension
08h 40m 46s
True Declination
0° 00' 00"
Sunlit
Object was in daylight at epoch
Visualization orbit readout
Latitude
38.98442°
Longitude
121.93724°
Altitude
446.485 km
Speed
7.65 km/s
Apparent Right ascension
12h 06m 40s
Apparent Declination
8° 33' 21"
Sunlit
Object is in full shadow
Visualization observer readout
Local Sidereal Time
17:23:53
Azimuth
269.785° W
Elevation
13.663°
Doppler factor
1
Orbital elements
Apogee altitude
446.323 km
Perigee altitude
445.617 km
Semi-major axis
6,824.107 km
Eccentricity
0.00005
Inclination
42.9961°
RAAN
130.1938°
Arg. of periapsis
306.1368°
True anomaly
Unknown
Mean anomaly
53.944°
Eccentric anomaly
Unknown
Mean motion
3.85012 °/min
Orbital period
93.5 mins
BSTAR
0.00064361
Loading maneuver chart data...
Loading SW <> Apogee altitude chart data...
Loading historical data...
Loading historical data...
Loading historical data...
Loading historical data...
Loading historical data...
Loading historical data...
Loading historical data...

STARLINK-34011 Visibility forecast

Observer location: undefined°, undefined°

Span
Click to sort rows by Start time (UTC) header in descending order
Start Az.
Max El. time (UTC)
Max El. Az.
Max El.
End time (UTC)
End Az.
5 mins2025-06-19 06:33:23.297Z269.326° W2025-06-19 06:36:23.297Z195.505° SSW26.41°2025-06-19 06:38:23.297Z153.498° SSE
5 mins2025-06-20 00:59:23.297Z231.392° WSW2025-06-20 01:01:23.297Z129.15° SE41.336°2025-06-20 01:04:23.297Z75.691° E
5 mins2025-06-20 02:37:23.297Z285.883° WNW2025-06-20 02:39:23.297Z1.924° NNE38.181°2025-06-20 02:42:23.297Z70.822° E
5 mins2025-06-20 04:15:23.297Z294.459° NW2025-06-20 04:17:23.297Z349.359° N41.236°2025-06-20 04:20:23.297Z92.211° ESE
5 mins2025-06-20 05:53:23.297Z269.379° W2025-06-20 05:55:23.297Z217.607° SW31.603°2025-06-20 05:58:23.297Z142.051° SSE
|